Weather History for Marshalltown, IA

Change the Weather History Date:

Wednesday, October 16, 2013

  Actual Average Record
Temperature  
Mean Temperature 45 °F 50 °F  
Max Temperature 49 °F 62 °F 75 °F (1998)
Min Temperature 40 °F 39 °F 24 °F (2002)
Degree Days  
Heating Degree Days 20 15  
Month to date heating degree days 119 200  
Since 1 July heating degree days 219 360  
Cooling Degree Days 0 0  
Month to date cooling degree days 16 10  
Year to date cooling degree days 872 728  
Moisture  
Dew Point 42 °F    
Average Humidity 85    
Maximum Humidity 93    
Minimum Humidity 77    
Precipitation  
Precipitation T in 0.07 in 0.25 in (2006)
Month to date precipitation 1.51 1.14  
Sea Level Pressure  
Sea Level Pressure 29.95 in    
Wind  
Wind Speed 9 mph (WNW)    
Max Wind Speed 17 mph    
Max Gust Speed 23 mph    
Visibility 10 miles    
Events Rain    
T = Trace of Precipitation, MM = Missing Value Source: NWS Daily Summary

Daily Weather History Graph

Daily Weather History Graph

Search for Another Location

Airport:

Trip Planner

Search our weather history database for the weather conditions in past years. The results will help you decide how hot, cold, wet, or windy it might be!

Date:

Astronomy

Oct. 16, 2013 Rise Set
Actual Time 7:25 AM CDT 6:27 PM CDT
Civil Twilight 6:57 AM CDT 6:56 PM CDT
Nautical Twilight 6:24 AM CDT 7:28 PM CDT
Astronomical Twilight 5:52 AM CDT 8:00 PM CDT
Moon 5:09 PM CDT (10/16) 4:51 AM CDT (10/16)
Length of Visible Light 11h 58m
Length of Day
11h 02m
Waxing Gibbous, 94% of the Moon is Illuminated
Oct 16
Waxing Gibbous
Oct 18
Full
Oct 26
Last Quarter
Nov 3
New
Nov 9
First Quarter

Hourly Weather History & Observations

Time (CDT) Temp. Windchill Dew Point Humidity Pressure Visibility Wind Dir Wind Speed Gust Speed Precip Events Conditions
12:53 AM 46.9 °F - 43.0 °F 86% 29.90 in 10.0 mi West 13.8 mph 21.9 mph N/A   Overcast
1:08 AM 46.4 °F 40.7 °F 42.8 °F 87% 29.89 in 10.0 mi West 12.7 mph 20.7 mph N/A   Overcast
1:53 AM 46.9 °F - 42.1 °F 83% 29.91 in 10.0 mi West 12.7 mph 20.7 mph N/A   Overcast
2:53 AM 46.9 °F - 42.1 °F 83% 29.91 in 10.0 mi West 13.8 mph - N/A   Overcast
3:53 AM 46.0 °F 40.6 °F 42.1 °F 86% 29.91 in 10.0 mi West 11.5 mph 20.7 mph N/A   Overcast
4:53 AM 46.0 °F 40.2 °F 43.0 °F 89% 29.92 in 10.0 mi West 12.7 mph - N/A   Overcast
5:53 AM 46.0 °F 39.9 °F 43.0 °F 89% 29.92 in 10.0 mi WNW 13.8 mph - N/A   Overcast
6:40 AM 46.4 °F 40.7 °F 42.8 °F 87% 29.92 in 10.0 mi WNW 12.7 mph - N/A   Overcast
6:50 AM 46.4 °F 40.4 °F 42.8 °F 87% 29.92 in 10.0 mi WNW 13.8 mph 19.6 mph N/A   Overcast
6:53 AM 46.0 °F 41.0 °F 43.0 °F 89% 29.93 in 10.0 mi WNW 10.4 mph - N/A   Overcast
7:53 AM 46.0 °F 41.4 °F 43.0 °F 89% 29.94 in 10.0 mi WNW 9.2 mph - N/A   Overcast
8:53 AM 46.9 °F - 44.1 °F 90% 29.96 in 10.0 mi WNW 12.7 mph - N/A   Overcast
9:32 AM 46.4 °F 41.1 °F 44.6 °F 93% 29.95 in 9.0 mi WNW 11.5 mph - 0.00 in Rain Light Rain
9:39 AM 46.4 °F 41.1 °F 44.6 °F 93% 29.95 in 10.0 mi WNW 11.5 mph - 0.00 in   Overcast
9:53 AM 46.9 °F - 43.0 °F 86% 29.97 in 10.0 mi WNW 10.4 mph - 0.00 in   Overcast
10:53 AM 48.0 °F - 43.0 °F 83% 29.98 in 10.0 mi WNW 12.7 mph - N/A   Overcast
11:53 AM 48.9 °F - 43.0 °F 80% 29.99 in 10.0 mi WNW 10.4 mph - N/A   Overcast
12:53 PM 48.0 °F - 43.0 °F 83% 29.99 in 10.0 mi WNW 11.5 mph - N/A   Overcast
1:53 PM 46.9 °F - 43.0 °F 86% 29.98 in 10.0 mi WNW 11.5 mph - N/A   Overcast
2:53 PM 48.0 °F - 42.1 °F 80% 29.98 in 10.0 mi WNW 11.5 mph - N/A   Overcast
3:53 PM 46.9 °F - 42.1 °F 83% 29.98 in 10.0 mi NW 11.5 mph - N/A   Overcast
4:53 PM 48.0 °F - 42.1 °F 80% 29.97 in 10.0 mi NNW 8.1 mph - N/A   Overcast
5:53 PM 48.0 °F - 41.0 °F 77% 29.96 in 10.0 mi NW 6.9 mph - N/A   Overcast
6:53 PM 46.9 °F - 41.0 °F 80% 29.97 in 10.0 mi West 3.5 mph - N/A   Overcast
7:18 PM 46.4 °F 45.2 °F 41.0 °F 81% 29.96 in 10.0 mi West 3.5 mph - N/A   Overcast
7:53 PM 46.9 °F - 42.1 °F 83% 29.98 in 10.0 mi WSW 3.5 mph - N/A   Overcast
8:53 PM 46.0 °F - 42.1 °F 86% 29.97 in 10.0 mi Calm Calm - N/A   Overcast
9:53 PM 45.0 °F 43.5 °F 41.0 °F 86% 29.98 in 10.0 mi SW 3.5 mph - N/A   Overcast
10:53 PM 44.1 °F 42.5 °F 41.0 °F 89% 29.97 in 10.0 mi WSW 3.5 mph - N/A   Overcast
11:53 PM 41.0 °F 38.0 °F 39.0 °F 93% 29.97 in 10.0 mi SW 4.6 mph - N/A   Clear